Regional Weather Roundup
Issued by NWS Little Rock, AR

Home | Current Version | Previous Version | Text Only | Print | Product List | Glossary On
Versions: 1 2 3 4 5 6 7 8 9 10 11 12 13 14 15 16 17 18 19 20 21 22 23 24 25 26 27
000
ASUS44 KLZK 262205
RWRLZK

WEATHER ROUNDUP FOR ARKANSAS
NATIONAL WEATHER SERVICE LITTLE ROCK AR
500 PM CDT THU MAY 26 2016

NOTE: "FAIR" INDICATES FEW OR NO CLOUDS BELOW 12,000 FEET WITH NO
SIGNIFICANT WEATHER AND/OR OBSTRUCTIONS TO VISIBILITY.

ARZ001-003-010-029-262300-
NORTHWEST ARKANSAS

CITY           SKY/WX    TMP DP  RH WIND       PRES   REMARKS
FAYETTEVILLE   TSTM      62  61  96 S9        29.92R
FORT SMITH     PTSUNNY   82  67  60 S17G28    29.85F
HARRISON       CLOUDY    76  69  79 S9        29.91R
BENTONVILLE    CLOUDY    70  57  64 S16G24    29.86S THUNDER
ROGERS         RAIN      70  63  78 S14G26    29.87F
SILOAM SPGS    CLOUDY    70  55  60 S15G30    29.88S
HIGHFILL       LGT RAIN  68  61  77 S28G44    29.84F
SPRINGDALE     PTSUNNY   64  61  88 SE12G22   29.91F FOG
$$

ARZ004-005-016-262300-
NORTH CENTRAL ARKANSAS

CITY           SKY/WX    TMP DP  RH WIND       PRES   REMARKS
BATESVILLE     CLOUDY    79  64  61 E13       29.93S
FLIPPIN        CLOUDY   N/A N/A N/A S7        29.87R
MTN HOME       CLOUDY    79  70  74 S8        29.89F
$$

ARZ040-041-262300-
WEST CENTRAL ARKANSAS

CITY           SKY/WX    TMP DP  RH WIND       PRES   REMARKS
MENA           PTSUNNY   77  68  73 E7        29.93F
MOUNT IDA      RAIN      70  66  87 MISG      29.90F FOG
$$

ARZ009-017-025-026-028-262300-
NORTHEAST ARKANSAS

CITY           SKY/WX    TMP DP  RH WIND       PRES   REMARKS
CORNING        LGT RAIN  75  68  78 E10G18    29.93F
JONESBORO      PTSUNNY   80  71  74 SE8       29.93F
NEWPORT        CLOUDY    77  72  84 SW17      29.94S
WALNUT RIDGE   PTSUNNY   82  73  74 S13       29.91F HX  88
BLYTHEVILLE    PTSUNNY   86  71  60 S5        29.95F HX  91
NW BLYTHEVILLE CLOUDY    84  73  70 S10G17    29.94F HX  91
$$

ARZ022-023-033-042-044-262300-
CENTRAL ARKANSAS

CITY           SKY/WX    TMP DP  RH WIND       PRES   REMARKS
LITTLE ROCK    CLOUDY    81  73  76 S8        29.91F HX  86
N LITTLE ROCK    N/A     77  71  79 W6        29.87F
JACKSONVILLE   CLOUDY    77  72  83 S7        29.90F
SEARCY         CLOUDY    72  70  93 S5        29.91F THUNDER
HOT SPRINGS    LGT RAIN  71  67  87 SW6       29.92F
RUSSELLVILLE   CLOUDY    80  72  76 S8        29.84F
CLINTON        FAIR      81  73  78 SE6       29.88F HX  85
$$

ARZ036-262300-
EAST ARKANSAS

CITY           SKY/WX    TMP DP  RH WIND       PRES   REMARKS
WEST MEMPHIS   TSTM      71  61  70 E14G41    29.91F
$$

ARZ050-053-066-070-073-262300-
SOUTHWEST ARKANSAS

CITY           SKY/WX    TMP DP  RH WIND       PRES   REMARKS
ARKADELPHIA    LGT RAIN  72  70  93 SW7       29.94F
CAMDEN         CLOUDY    73  66  78 CALM      29.93F
TEXARKANA      LGT RAIN  71  69  93 NE6       29.92F FOG
EL DORADO      CLOUDY    81  73  76 S3        29.94F HX  86
DE QUEEN       CLOUDY    71  69  93 E5        29.91F
$$

ARZ056-057-069-262300-
SOUTHEAST ARKANSAS

CITY           SKY/WX    TMP DP  RH WIND       PRES   REMARKS
PINE BLUFF     LGT RAIN  76  70  82 SW15      29.96S
STUTTGART      CLOUDY    73  64  73 SE5       29.93F
MONTICELLO     CLOUDY    83  73  72 SW5       29.94F HX  89

$$






USA.gov is the U.S. government's official web portal to all federal, state and local government web resources and services.